TimeCDT,TemperatureF,Dew PointF,Humidity,Sea Level PressureIn,VisibilityMPH,Wind Direction,Wind SpeedMPH,Gust SpeedMPH,PrecipitationIn,Events,Conditions,WindDirDegrees,DateUTC
12:15 AM,46.4,32.7,59,29.98,10.0,SE,8.1,-,N/A,,Clear,130,2013-03-21 05:15:00
12:35 AM,46.0,33.6,62,29.97,10.0,SE,10.4,-,N/A,,Clear,130,2013-03-21 05:35:00
12:55 AM,45.5,33.8,64,29.96,10.0,SE,12.7,19.6,N/A,,Clear,130,2013-03-21 05:55:00
1:35 AM,45.5,34.0,64,29.93,10.0,SE,12.7,20.7,N/A,,Clear,140,2013-03-21 06:35:00
1:55 AM,45.5,33.8,64,29.92,10.0,SE,12.7,-,N/A,,Clear,140,2013-03-21 06:55:00
2:15 AM,44.6,33.8,66,29.91,10.0,SE,11.5,-,N/A,,Clear,140,2013-03-21 07:15:00
2:35 AM,44.2,33.4,66,29.91,10.0,SE,9.2,-,N/A,,Clear,140,2013-03-21 07:35:00
2:55 AM,43.3,33.3,68,29.90,10.0,SE,9.2,-,N/A,,Clear,130,2013-03-21 07:55:00
3:15 AM,43.3,33.4,68,29.89,10.0,SE,10.4,-,N/A,,Clear,140,2013-03-21 08:15:00
3:55 AM,42.8,33.8,70,29.87,10.0,SE,10.4,-,N/A,,Clear,140,2013-03-21 08:55:00
4:15 AM,42.4,33.8,71,29.86,10.0,SE,10.4,-,N/A,,Clear,130,2013-03-21 09:15:00
4:35 AM,42.1,33.8,72,29.85,10.0,SE,9.2,-,N/A,,Clear,140,2013-03-21 09:35:00
4:55 AM,41.9,33.8,73,29.84,10.0,SE,8.1,-,N/A,,Clear,140,2013-03-21 09:55:00
5:15 AM,41.4,33.4,73,29.83,10.0,SE,9.2,-,N/A,,Clear,130,2013-03-21 10:15:00
5:35 AM,41.5,33.1,72,29.81,10.0,SE,8.1,-,N/A,,Clear,140,2013-03-21 10:35:00
6:15 AM,41.9,32.9,70,29.80,10.0,SE,9.2,-,N/A,,Clear,140,2013-03-21 11:15:00
6:35 AM,41.9,32.5,69,29.79,10.0,SE,10.4,-,N/A,,Clear,140,2013-03-21 11:35:00
6:55 AM,42.4,32.5,68,29.79,10.0,SE,11.5,-,N/A,,Clear,130,2013-03-21 11:55:00
7:15 AM,43.0,32.5,67,29.79,10.0,SE,11.5,17.3,N/A,,Clear,140,2013-03-21 12:15:00
7:35 AM,43.2,32.9,67,29.78,10.0,SSE,11.5,-,N/A,,Clear,150,2013-03-21 12:35:00
7:55 AM,43.2,33.1,68,29.77,10.0,SSE,12.7,16.1,N/A,,Clear,150,2013-03-21 12:55:00
8:15 AM,43.7,33.3,67,29.78,10.0,SSE,11.5,-,N/A,,Clear,150,2013-03-21 13:15:00
8:35 AM,43.7,33.6,68,29.77,10.0,SSE,11.5,-,N/A,,Clear,150,2013-03-21 13:35:00
8:55 AM,44.4,34.0,67,29.77,10.0,SSE,10.4,-,N/A,,Mostly Cloudy,150,2013-03-21 13:55:00
9:15 AM,45.1,34.7,67,29.76,10.0,SE,11.5,-,N/A,,Overcast,140,2013-03-21 14:15:00
9:35 AM,46.0,34.7,65,29.75,10.0,SE,13.8,18.4,N/A,,Mostly Cloudy,140,2013-03-21 14:35:00
9:55 AM,47.3,34.9,62,29.74,10.0,SSE,15.0,-,N/A,,Mostly Cloudy,150,2013-03-21 14:55:00
10:15 AM,47.7,34.3,60,29.73,10.0,SSE,15.0,19.6,N/A,,Overcast,160,2013-03-21 15:15:00
10:35 AM,49.1,34.7,58,29.72,10.0,SSE,13.8,19.6,N/A,,Overcast,150,2013-03-21 15:35:00
10:55 AM,50.0,34.3,55,29.72,10.0,SSE,10.4,-,N/A,,Overcast,150,2013-03-21 15:55:00
11:15 AM,50.9,34.0,52,29.71,10.0,SSE,15.0,-,N/A,,Overcast,150,2013-03-21 16:15:00
11:35 AM,52.2,34.3,51,29.69,10.0,SSE,16.1,21.9,N/A,,Overcast,160,2013-03-21 16:35:00
11:55 AM,53.1,34.7,50,29.68,10.0,SSE,15.0,23.0,N/A,,Overcast,160,2013-03-21 16:55:00
12:15 PM,53.8,35.2,50,29.68,10.0,SSE,13.8,25.3,N/A,,Overcast,160,2013-03-21 17:15:00
12:35 PM,54.5,35.8,49,29.67,10.0,SSE,18.4,25.3,N/A,,Overcast,150,2013-03-21 17:35:00
12:55 PM,55.4,36.0,48,29.66,10.0,SSE,18.4,25.3,N/A,,Overcast,160,2013-03-21 17:55:00
1:15 PM,55.6,36.0,48,29.65,10.0,SSE,17.3,26.5,N/A,,Overcast,160,2013-03-21 18:15:00
1:35 PM,56.5,36.3,47,29.64,10.0,SSE,13.8,-,N/A,,Overcast,150,2013-03-21 18:35:00
2:15 PM,58.3,37.9,47,29.62,10.0,SSE,18.4,23.0,N/A,,Overcast,160,2013-03-21 19:15:00
2:35 PM,59.2,39.0,47,29.62,10.0,South,12.7,20.7,N/A,,Mostly Cloudy,170,2013-03-21 19:35:00
3:15 PM,60.4,40.3,47,29.60,10.0,South,13.8,21.9,N/A,,Scattered Clouds,180,2013-03-21 20:15:00
3:35 PM,61.3,41.5,48,29.59,10.0,SSE,15.0,21.9,N/A,,Scattered Clouds,160,2013-03-21 20:35:00
3:55 PM,62.1,42.1,48,29.58,10.0,SSE,13.8,21.9,N/A,,Clear,160,2013-03-21 20:55:00
4:15 PM,62.4,42.4,48,29.57,10.0,South,12.7,-,N/A,,Clear,170,2013-03-21 21:15:00
4:35 PM,61.3,42.4,50,29.56,10.0,SSE,13.8,23.0,N/A,,Clear,150,2013-03-21 21:35:00
4:55 PM,61.5,43.2,51,29.56,10.0,ESE,17.3,21.9,N/A,,Clear,120,2013-03-21 21:55:00
5:15 PM,59.5,43.7,56,29.56,10.0,ESE,13.8,-,N/A,,Clear,120,2013-03-21 22:15:00
5:35 PM,60.3,44.8,57,29.57,10.0,ESE,16.1,19.6,N/A,,Clear,110,2013-03-21 22:35:00
5:55 PM,60.1,44.8,57,29.56,10.0,ESE,11.5,-,N/A,,Clear,120,2013-03-21 22:55:00
6:15 PM,59.9,45.5,59,29.57,10.0,East,13.8,19.6,N/A,,Clear,90,2013-03-21 23:15:00
6:35 PM,58.1,45.3,62,29.58,10.0,East,17.3,23.0,N/A,,Clear,80,2013-03-21 23:35:00
6:55 PM,56.8,44.8,64,29.59,10.0,East,16.1,-,N/A,,Clear,80,2013-03-21 23:55:00
7:15 PM,55.9,44.4,65,29.60,10.0,East,15.0,-,N/A,,Clear,90,2013-03-22 00:15:00
7:35 PM,50.7,40.6,68,29.61,10.0,ENE,19.6,24.2,N/A,,Clear,60,2013-03-22 00:35:00
7:55 PM,48.4,39.7,72,29.62,10.0,NE,18.4,23.0,N/A,,Clear,50,2013-03-22 00:55:00
8:15 PM,46.4,38.5,74,29.63,10.0,NE,20.7,-,N/A,,Clear,50,2013-03-22 01:15:00
8:35 PM,45.5,38.3,76,29.64,10.0,NE,16.1,-,N/A,,Clear,50,2013-03-22 01:35:00
8:55 PM,44.2,37.4,77,29.65,10.0,ENE,19.6,25.3,N/A,,Clear,60,2013-03-22 01:55:00
9:15 PM,42.4,36.5,79,29.65,10.0,ENE,23.0,28.8,N/A,,Clear,70,2013-03-22 02:15:00
9:35 PM,41.5,36.1,81,29.66,10.0,ENE,17.3,25.3,N/A,,Clear,60,2013-03-22 02:35:00
9:55 PM,40.5,35.6,83,29.67,10.0,ENE,19.6,-,N/A,,Clear,70,2013-03-22 02:55:00
10:15 PM,40.1,35.6,84,29.66,10.0,East,18.4,23.0,N/A,,Clear,80,2013-03-22 03:15:00
10:35 PM,39.2,35.6,87,29.68,10.0,ENE,15.0,19.6,N/A,,Clear,70,2013-03-22 03:35:00
10:55 PM,39.9,35.6,85,29.68,10.0,East,17.3,23.0,N/A,,Mostly Cloudy,80,2013-03-22 03:55:00
11:15 PM,40.1,35.6,84,29.68,10.0,East,18.4,25.3,N/A,,Overcast,80,2013-03-22 04:15:00
11:35 PM,40.1,35.4,83,29.70,10.0,ENE,13.8,18.4,N/A,,Overcast,70,2013-03-22 04:35:00
11:55 PM,39.7,35.1,83,29.71,10.0,ENE,17.3,21.9,N/A,,Overcast,60,2013-03-22 04:55:00